Location: Bennemühlen
(52.5740°N, 9.7135°E)
Time: 01:47:28
(UTC+00:00)

Vanguard 2 Rocket - Pass Details

Date: 24 February 2026
Orbit: 553 x 3286 km, 32.9° (Epoch: 12 March)

Event Time Altitude Azimuth Distance (km) Brightness Sun altitude
Rises 11:25:05 0° 241° (WSW) 7,182 11.8 28.0°
Reaches altitude 10° 11:30:26 10° 234° (SW) 6,228 11.7 28.1°
Maximum altitude 11:47:18 37° 177° (S) 4,015 12.5 28.0°
Drops below altitude 10° 12:00:28 10° 118° (ESE) 4,899 11.0 27.8°
Sets 12:04:03 0° 110° (ESE) 5,561 11.1 27.8°
